Dewpoint
7 6 5 5 5 5 5 6 7 11 9 10 12 14 15 22 27 27 26 25 26 26 27 33 40 43 44 41 40 40 39 37 36 36 36 34 34 34 33 32 32 33 32 32
10 9 8 7 8 9 11 11 15 19 20 13 15 20 24 25 24 26 32 31 32 34 35 38 40 42 43 40 38 38 36 35 36 34 34 33 33 34 31 30 30 30 29 29
6 7 7 7 10 8 13 20 23 22 29 29 28 30 28 29 27 33 32 34 37 38 37 38 41 41 43 39 38 38 36 35 34 33 32 31 30 29 29 28 28 28 28 28
12 6 3 5 9 23 24 19 18 29 28 29 31 33 33 35 35 34 35 35 38 40 40 41 40 41 43 40 37 36 34 33 32 32 30 30 29 29 29 29 28 29 28 27
7 -0 1 1 21 18 15 15 30 28 27 29 32 34 31 33 36 35 35 37 37 39 40 39 39 40 43 40 36 33 32 32 32 31 30 29 29 28 29 28 28 28 27 27
9 6 1 3 11 14 14 19 29 29 28 30 33 31 32 32 35 35 34 33 34 37 37 39 40 42 41 38 37 34 33 32 33 31 29 29 28 28 28 28 28 28 28 29
5 5 6 5 12 17 19 22 28 30 30 31 31 31 33 34 33 34 33 32 33 32 34 38 39 40 39 39 37 37 36 34 31 29 29 29 29 29 29 29 28 28 28 27
-0 7 4 17 12 20 24 29 29 31 32 34 33 31 29 29 31 30 29 29 31 30 33 37 38 38 37 36 37 35 35 34 32 31 29 30 30 29 28 28 29 29 29 28
15 9 14 14 25 27 31 30 30 31 35 34 33 31 31 28 28 28 27 25 30 32 34 37 37 37 36 35 35 34 32 32 32 31 31 31 30 29 27 28 28 28 28 27
10 9 15 19 22 30 34 32 33 37 36 32 31 30 29 30 27 27 25 24 25 34 35 36 37 37 36 34 32 31 30 30 30 30 30 30 32 31 29 28 28 27 26 26
14 17 19 25 29 31 30 32 36 34 33 32 33 32 30 28 29 29 28 26 27 31 34 37 37 36 36 33 31 30 30 29 29 29 30 30 30 30 29 30 29 28 27 28
14 15 25 26 26 29 32 33 32 33 33 32 32 33 33 33 29 28 28 29 29 31 34 36 37 36 35 35 33 33 31 30 29 29 31 31 31 30 32 32 28 28 28 28
17 21 26 29 30 34 31 31 32 33 34 32 32 32 32 33 34 35 32 32 33 35 35 36 37 36 35 34 32 32 31 30 30 30 31 32 30 28 27 29 28 27 27 28
23 26 29 32 31 30 30 30 34 34 34 32 31 31 32 33 34 35 37 36 36 36 37 37 37 36 35 34 32 32 32 31 31 31 30 30 30 28 28 26 26 26 27 28
33 34 34 33 29 29 29 29 29 32 34 33 32 31 32 32 32 34 36 37 36 35 35 36 36 36 35 34 32 31 31 31 31 31 31 31 31 29 29 27 26 26 26 27
29 33 30 27 26 28 28 29 28 30 32 32 33 33 32 32 32 34 37 37 35 33 33 34 34 33 34 33 33 32 32 31 32 31 31 31 31 30 28 27 27 26 26 26
26 26 27 26 27 28 28 29 30 30 30 30 32 32 33 32 31 32 33 36 34 32 32 32 31 32 32 32 33 33 32 31 31 30 31 31 30 28 27 27 26 26 27 27
27 27 28 28 28 28 28 29 30 30 31 31 31 32 32 31 30 31 31 33 33 32 31 31 31 31 32 32 32 31 30 30 31 31 31 31 30 29 28 28 28 27 27 26
27 26 26 26 26 27 27 27 29 30 32 32 29 30 32 32 31 31 32 32 32 32 31 31 31 31 31 31 31 32 31 30 30 31 30 30 29 28 28 29 28 29 27 26
26 25 24 24 24 24 24 26 28 29 31 30 29 29 30 31 32 31 32 32 31 31 32 31 31 31 30 31 32 32 31 31 30 30 30 29 29 29 29 29 28 30 29 27
27 26 24 23 27 29 30 30 30 29 31 31 29 28 29 30 32 31 31 31 32 31 30 31 32 31 31 31 32 32 31 31 31 30 29 30 29 29 30 29 30 30 29 29
30 29 30 30 29 30 31 30 27 27 29 30 31 30 29 29 30 31 32 30 31 30 30 31 33 32 32 31 32 32 32 32 31 31 30 30 30 30 30 30 29 30 30 30
26 25 24 26 27 27 29 28 26 26 27 29 29 30 30 29 30 29 29 32 31 31 31 30 32 31 29 32 32 32 32 32 31 31 31 31 31 30 30 30 30 30 30 30
20 21 23 23 23 21 21 23 24 23 26 26 27 28 30 29 29 31 32 31 31 31 31 32 31 30 30 32 32 32 32 32 32 32 31 31 31 31 31 31 30 31 30 30
21 20 21 21 20 20 23 22 21 21 22 23 24 25 27 29 30 30 31 31 31 31 32 29 29 30 31 32 32 32 31 31 31 31 32 31 31 31 31 31 31 30 30 29
18 18 19 19 20 20 21 22 21 20 21 22 22 26 27 28 30 32 31 31 30 31 31 31 30 30 31 32 32 32 32 33 32 32 31 31 31 31 31 31 31 30 29 29
19 19 18 16 17 20 18 20 21 20 21 24 25 26 25 28 28 29 30 30 30 30 30 30 31 30 31 32 32 32 32 32 32 32 32 31 31 31 31 30 30 30 29 28
Wind_Speed
22 26 29 33 34 34 32 34 34 40 46 45 39 34 32 30 29 27 24 22 19 20 19 14 14 15 13 11 12 16 18 19 18 17 21 27 26 23 22 22 20 18 18 17
23 26 27 32 35 34 31 27 26 30 43 36 29 28 30 29 21 22 21 14 14 10 9 5 7 8 9 12 16 19 17 16 18 20 21 25 26 26 23 23 22 22 21 20
23 22 22 24 17 12 17 21 27 32 32 28 30 33 29 23 18 12 9 11 15 14 12 14 11 12 7 14 15 14 22 22 20 20 23 25 27 26 25 25 25 23 21 21
19 21 24 19 18 7 14 25 29 18 30 28 34 36 20 9 11 12 11 9 5 4 7 8 12 9 9 14 16 12 17 24 25 22 26 27 27 26 26 25 24 22 21 20
12 17 24 22 1 12 23 43 7 22 36 37 37 12 12 8 11 8 6 7 7 8 8 10 13 7 12 12 15 16 14 19 24 24 25 26 26 27 25 25 23 21 21 20
16 20 24 13 10 23 31 25 15 32 33 30 26 5 7 19 9 6 5 5 8 6 5 7 8 3 11 11 14 18 18 16 21 23 25 26 27 25 23 23 22 21 21 19
21 25 18 14 18 21 9 11 36 35 32 27 20 15 17 17 15 8 7 8 8 9 9 7 5 0 4 11 12 13 15 20 19 22 24 24 25 24 24 22 22 20 19 17
21 14 12 9 27 9 16 35 33 33 27 26 25 21 18 16 12 12 11 8 9 9 9 6 3 1 1 4 10 15 18 19 20 19 20 23 25 22 22 22 22 20 18 17
9 13 24 28 10 24 28 31 33 24 23 21 22 21 19 18 14 11 11 12 7 8 6 6 5 3 0 3 8 15 19 19 20 20 20 23 26 23 22 22 21 21 20 19
19 12 14 27 28 24 19 25 24 17 21 20 20 21 20 17 15 13 10 10 10 6 7 5 3 2 1 6 12 14 18 20 22 22 22 22 20 21 19 20 20 20 20 19
25 23 21 19 15 22 30 26 20 22 21 18 20 21 21 20 18 15 13 10 8 8 7 8 6 4 5 10 15 16 17 18 20 21 22 22 19 20 19 18 19 21 19 20
22 18 16 29 29 31 26 19 18 21 23 23 20 22 24 22 17 13 12 10 8 7 7 7 9 8 9 13 16 16 17 18 18 20 20 20 19 14 8 13 14 14 19 19
21 19 23 26 28 20 16 16 16 18 17 20 20 19 20 21 20 19 12 10 9 9 6 8 11 11 11 14 16 18 18 19 19 19 19 20 20 21 20 14 12 16 20 20
19 18 14 6 9 15 15 16 15 14 13 15 17 19 19 19 20 17 13 11 11 11 8 8 12 14 15 19 19 18 17 19 18 17 18 18 18 18 19 20 19 17 16 19
14 12 5 7 10 13 14 16 16 17 17 17 19 20 20 21 20 19 16 12 13 11 11 9 13 15 18 20 20 21 19 18 16 16 17 17 17 19 19 20 19 18 17 18
12 5 4 9 11 13 14 15 17 18 18 17 18 20 21 19 19 17 14 10 10 10 9 8 4 10 16 19 19 18 18 20 18 17 18 17 18 18 19 19 18 18 19 19
8 9 10 11 12 13 14 14 15 17 18 18 18 18 19 21 18 18 17 9 5 6 5 3 5 10 15 16 17 16 18 18 18 17 18 17 17 18 19 19 19 18 17 18
5 6 8 10 12 14 14 14 14 15 17 18 16 16 16 18 18 19 18 12 3 4 4 3 8 12 15 15 15 15 18 19 17 17 16 16 17 17 18 19 19 19 17 18
5 7 9 10 11 13 14 15 14 14 14 16 17 16 15 14 16 17 17 11 6 5 1 6 10 12 13 15 16 14 16 18 16 16 16 16 17 17 18 18 18 18 18 18
5 7 8 10 11 12 15 16 15 13 14 15 14 15 16 16 15 16 16 12 7 6 3 8 10 11 12 14 13 11 14 15 16 15 15 16 15 16 16 18 18 17 17 17
7 8 10 12 12 11 10 12 13 13 15 13 12 13 15 17 14 15 13 12 11 9 4 8 10 10 11 12 11 12 14 14 14 16 17 16 17 17 16 17 17 17 18 17
9 10 12 11 11 12 10 10 12 13 15 16 14 13 15 15 14 14 10 6 10 8 3 6 7 12 11 14 11 12 13 14 14 14 15 16 17 17 16 17 17 17 17 17
9 9 10 10 12 14 11 10 12 13 14 15 16 16 15 16 13 12 13 9 10 7 3 4 4 10 14 11 11 12 14 14 15 14 15 16 16 16 16 17 16 16 17 17
11 12 12 12 12 12 13 14 15 13 11 14 13 14 14 14 15 10 7 11 11 7 5 3 7 12 15 10 11 13 13 14 14 14 15 15 15 15 15 16 16 16 16 16
11 12 11 13 14 12 13 14 16 14 15 15 16 14 15 13 11 16 14 13 12 9 5 3 7 11 11 11 11 12 12 13 13 14 14 15 15 15 15 15 15 17 16 16
11 11 11 12 11 12 13 14 14 15 15 15 16 14 14 14 15 13 13 12 11 9 8 5 6 8 9 10 12 12 12 11 12 13 13 14 14 15 15 16 16 17 16 15
10 10 11 11 10 12 13 15 16 16 17 17 19 17 17 15 15 16 14 12 11 10 9 9 9 10 10 9 10 11 12 12 13 14 14 14 15 15 17 17 17 16 16 15
Wind_Direction
274 282 288 286 288 284 279 279 280 285 284 289 296 298 292 291 304 309 310 309 305 283 276 258 249 240 194 181 162 158 159 158 158 155 146 142 143 147 156 151 152 143 135 134
280 280 279 285 284 286 286 283 287 287 287 284 299 307 299 310 309 316 325 338 344 335 315 286 253 237 190 192 169 152 144 141 143 142 147 143 143 156 155 154 154 160 153 148
278 286 292 282 281 293 304 309 310 313 312 329 317 315 304 311 312 334 358 30 2 7 29 355 326 290 202 173 160 172 150 147 146 152 148 148 152 154 154 156 158 155 150 151
266 284 277 283 326 332 307 306 318 324 333 332 324 299 296 355 7 11 6 15 356 294 300 289 287 276 206 157 159 157 151 150 146 155 150 150 154 155 154 155 153 148 152 153
260 278 294 293 65 341 325 309 356 338 332 333 315 324 71 32 349 319 341 345 349 339 327 317 322 309 172 158 147 145 160 152 150 153 152 151 158 161 156 152 148 148 148 147
269 281 284 301 359 340 323 279 358 335 325 310 317 10 328 334 327 330 322 342 355 2 347 342 349 137 151 167 166 164 166 161 150 159 153 157 160 159 158 152 149 152 151 159
267 271 282 292 353 335 282 328 324 317 311 310 336 341 309 310 318 321 312 332 345 354 8 8 18 11 207 174 186 176 155 147 158 158 154 152 156 158 158 154 150 148 147 146
268 260 275 358 341 339 302 301 303 305 307 311 321 325 331 332 324 327 317 325 333 339 356 21 31 350 244 203 168 162 166 159 146 151 146 146 149 153 153 151 143 140 137 139
301 290 313 314 309 298 293 287 291 291 301 317 314 317 320 322 322 323 318 320 308 308 326 338 352 340 292 188 175 158 160 163 153 144 147 145 140 151 156 152 153 156 161 155
288 280 295 307 299 299 312 315 317 312 323 332 333 326 318 310 308 309 309 311 311 270 267 264 285 307 313 166 164 165 159 157 156 150 148 149 147 154 157 161 166 164 161 161
273 282 292 279 297 312 323 320 324 333 333 335 336 337 339 318 307 308 305 306 298 275 255 243 227 209 169 159 162 161 158 154 152 152 150 147 153 160 170 169 171 164 168 166
262 270 298 293 307 314 309 318 340 337 332 338 344 335 335 333 326 314 314 313 306 293 267 228 215 205 168 156 163 156 150 150 153 153 151 148 150 140 138 155 156 153 155 163
264 277 286 294 297 296 329 337 340 339 339 335 336 334 331 325 327 320 318 325 322 323 288 226 204 201 180 160 150 152 155 154 153 153 154 157 157 160 152 145 151 152 156 156
285 295 281 298 321 327 333 335 343 340 346 340 333 334 333 330 324 326 334 330 328 323 305 249 218 198 177 166 155 150 153 152 154 154 152 156 159 159 153 154 160 162 156 158
302 285 311 327 330 334 337 335 341 341 341 343 345 340 337 334 329 321 313 325 326 322 319 276 229 198 170 167 158 152 152 153 151 151 152 150 150 148 146 154 160 157 158 163
326 327 325 335 343 341 341 340 339 339 341 336 339 340 340 337 331 326 312 333 338 334 335 320 247 163 161 160 152 148 151 150 148 150 147 148 153 150 153 156 155 156 162 168
338 347 349 344 348 345 341 336 336 335 335 340 330 329 336 347 344 346 335 331 334 331 343 317 174 145 142 143 149 147 144 141 146 147 150 153 151 156 160 156 158 163 163 163
346 353 352 344 341 334 337 335 334 335 335 335 328 325 335 340 340 335 331 310 302 342 25 86 129 132 135 138 139 139 144 146 148 151 150 155 159 161 163 161 163 162 157 164
359 1 358 352 346 340 335 335 333 331 335 335 332 326 324 326 330 332 334 332 298 319 17 132 136 132 135 134 135 141 145 149 152 154 157 158 162 164 166 165 165 165 159 162
329 336 341 339 336 338 335 337 333 331 332 337 330 335 331 331 331 331 334 334 321 308 275 162 153 146 141 143 142 143 147 150 153 156 156 161 163 164 164 168 166 160 162 166
311 324 327 326 332 329 334 333 331 333 332 323 325 328 326 323 324 329 333 338 357 344 298 184 164 155 157 156 147 150 151 154 157 160 162 163 159 166 166 165 165 162 168 170
328 332 338 340 334 326 337 338 343 339 333 333 333 325 325 328 329 325 309 314 330 344 309 197 198 174 169 168 163 161 161 164 164 164 163 160 163 163 162 163 166 167 170 172
329 328 329 330 325 318 317 321 336 337 337 340 336 330 330 323 318 317 317 340 336 329 299 226 216 173 168 185 165 171 170 166 165 165 164 164 165 166 167 169 169 170 171 176
333 332 325 325 318 317 324 330 330 327 333 330 334 335 331 327 327 316 295 307 315 312 289 241 190 173 175 169 168 169 167 168 166 163 166 166 168 168 168 168 169 172 173 175
331 323 324 325 324 330 332 327 323 334 325 328 331 336 338 331 304 313 305 303 297 294 280 223 206 189 184 173 175 177 175 173 170 167 168 171 171 172 170 171 171 174 175 176
334 334 327 328 328 324 326 331 324 325 333 323 322 327 327 325 320 314 306 291 286 276 263 221 200 198 202 192 184 181 181 178 175 176 176 177 178 177 176 175 171 172 170 166
323 320 329 323 327 330 328 321 318 321 324 320 320 322 320 316 321 321 319 292 275 267 252 234 219 212 209 205 200 193 189 188 188 189 185 180 179 176 173 170 166 164 161 159